Location: Stigler
(35.2540°N, 95.1230°W)
Time: 15:49:46
(UTC-05:00)

Daily predictions for brighter satellites

Satellite Brightness Start Highest point End
(mag) Time Altitude Azimuth Time Altitude Azimuth Time Altitude Azimuth
BREEZE-M DEB (TANK) 3.8 19:20:26 10° NW 19:23:42 57° NE 19:33:40 10° ESE
Cosmos 1844 Rocket 3.6 19:26:47 10° NNW 19:32:14 56° WSW 19:37:41 10° S
ASTRO E2 3.5 19:30:54 10° WSW 19:34:40 39° S 19:38:27 10° E
Cosmos 1437 3.5 19:32:53 10° NNE 19:35:52 32° ENE 19:38:49 10° SE
Cosmos 1766 4.0 19:32:56 10° SSE 19:36:28 32° E 19:40:01 10° NNE
Cosmos 2237 Rocket 2.8 19:31:44 10° SSW 19:37:22 66° WNW 19:43:02 10° NNE
FREGAT/IRIS 3.7 19:35:15 10° SE 19:37:53 25° ENE 19:40:30 10° NNE
Spot 2 Rocket 4.4 19:33:57 10° SE 19:38:11 28° ENE 19:42:26 10° N
Cosmos 2346 Rocket 4.5 19:32:45 10° N 19:38:44 59° E 19:44:40 10° SSE
NOAA 12 4.4 19:35:45 10° SE 19:40:44 46° ENE 19:45:45 10° N
OAO 3 Rocket 3.3 19:36:26 10° WSW 19:41:08 64° SSE 19:45:55 10° E
Cosmos 2056 Rocket 4.0 19:37:20 10° N 19:42:29 43° ENE 19:47:37 10° SE
IDEFIX/ARIANE 42P 4.0 19:37:56 10° S 19:42:52 44° W 19:47:53 10° NNW
NOSS 3-2 (C) 3.7 19:39:12 10° S 19:44:53 47° ESE 19:50:58 10° NE
MSX 4.3 19:40:01 10° S 19:45:42 68° WSW 19:51:27 10° NNW
CZ-4C R/B 3.3 19:41:05 10° SW 19:46:07 47° NW 19:51:45 10° NNE
Helios 1A 4.1 19:42:50 10° SE 19:46:15 25° ENE 19:49:40 10° NNE
COSMO-SKYMED 1 3.5 19:42:31 10° N 19:46:46 55° WNW 19:50:59 10° SSW
Milstar 3 4.5 19:38:04 10° WSW 19:47:32 64° S 20:04:47 13° E
ATLAS 5 CENTAUR R/B 2.4 19:45:01 10° S 19:49:14 34° ESE 19:53:43 10° NE
Cosmos 1371 Rocket 4.0 19:46:47 10° NNW 19:52:05 72° ENE 19:57:23 10° SSE
SAR-Lupe-1 4.0 19:49:14 10° SSE 19:52:46 72° ENE 19:56:20 10° N
Cosmos 1953 3.4 19:49:50 10° SE 19:52:58 22° E 19:56:06 10° NE
SL-16 R/B 2.2 19:50:17 10° SSW 19:55:56 76° ESE 20:01:38 10° NNE
Aureole 2 Rocket 2.9 19:53:48 10° SSW 19:58:10 78° ESE 20:02:31 10° NNE
Cosmos 2034 Rocket 4.3 19:55:18 10° SSE 20:01:06 42° E 20:06:58 10° NNE
Cosmos 1464 Rocket 4.0 19:58:04 10° S 20:04:15 63° E 20:10:22 10° NNE
Cosmos 1766 Rocket 4.1 20:04:12 10° NNE 20:08:14 35° E 20:12:12 10° SE
Cosmos 1805 3.8 20:06:20 10° SSE 20:09:56 35° E 20:13:33 10° NNE
Cosmos 1624 Rocket 3.9 20:04:49 10° NNW 20:10:03 85° ENE 20:15:14 10° SSE
HJ-1C 3.4 20:07:32 10° SSE 20:10:48 54° ENE 20:14:05 10° N
Tiangong 2 4.0 20:10:03 10° WSW 20:11:28 12° SW 20:12:53 10° SSW
H-2A R/B 4.1 20:12:11 20° E 20:12:48 21° ENE 20:15:47 10° NNE
Meteor 1-22 Rocket 4.4 20:10:06 10° SSW 20:15:29 71° W 20:20:47 10° N
SL-8 R/B 4.5 20:12:56 10° SSW 20:17:09 32° SE 20:19:07 23° E
Meteor 1-29 2.9 20:15:13 10° NNE 20:18:43 68° ESE 20:22:11 10° S
METEOR-M 4.1 20:18:20 10° SSE 20:23:41 89° ENE 20:29:04 10° NNW
Cosmos 1378 3.2 20:20:29 10° N 20:24:13 76° W 20:27:55 10° S
Cosmos 2278 Rocket 3.4 20:19:17 10° NW 20:24:36 43° WSW 20:29:53 10° S
SJ-6B 4.0 20:21:44 10° S 20:25:29 45° W 20:29:21 10° NNW
Cosmos 1544 3.6 20:22:08 10° SSE 20:25:33 35° E 20:29:00 10° NNE
USA 215 3.8 20:19:20 10° NE 20:25:44 58° NW 20:32:06 10° WSW
Cosmos 2297 3.7 20:22:46 10° NNW 20:28:28 87° WSW 20:34:06 10° SSE
Timation 1 Rocket 4.3 20:23:42 10° NNW 20:29:39 67° ENE 20:34:28 16° SSE
FENGYUN 3A 3.8 20:25:39 13° SE 20:30:10 49° ENE 20:35:21 10° N
Meteor 1-24 Rocket 4.2 20:24:47 10° NNW 20:30:19 60° W 20:35:38 10° S
Cosmos 1076 Rocket 3.4 20:26:06 10° N 20:30:26 83° E 20:34:47 10° S
Cosmos-2242 2.9 20:26:37 10° S 20:30:52 63° E 20:35:12 10° NNE
Abrixas 4.1 20:30:34 10° SSW 20:32:05 22° S 20:32:05 22° S
Cosmos 1758 3.2 20:29:32 10° S 20:33:36 79° E 20:37:42 10° N
Helios 1B rocket 3.2 20:33:49 10° N 20:37:50 54° WNW 20:41:50 10° SSW
Cosmos 1452 Rocket 3.5 20:34:09 10° N 20:39:20 58° ENE 20:41:51 29° SE
OAO 1 Rocket 4.4 20:35:54 10° WSW 20:41:15 77° SSE 20:43:21 38° E
Cosmos 1603 3.6 20:37:20 10° S 20:42:59 69° ESE 20:48:43 10° NNE
Cosmos 1408 Rocket 3.6 20:39:35 10° N 20:43:57 78° W 20:48:15 10° S
Cosmos 2369 Rocket 3.8 20:40:28 10° NNE 20:43:36 17° NE 20:43:36 17° NE
SeaSat 1 2.4 20:39:20 10° NNE 20:44:13 59° ESE 20:49:05 10° SSW
Resurs 01 Rocket 2.2 20:40:15 10° S 20:44:37 57° W 20:49:01 10° NNW
SEDSat Delta rocket 4.1 20:41:00 10° WSW 20:47:41 63° S 20:50:22 37° ESE
CZ-4B DEB 2.8 20:48:46 72° N 20:48:46 72° N 20:51:47 10° N
Resurs 1-3 3.8 20:44:09 10° S 20:48:30 69° WSW 20:52:53 10° NNW
Cosmos 468 4.4 20:46:46 10° SSW 20:52:02 87° ESE 20:57:18 10° NNE
FengYun 1-2 T 4.4 20:46:47 10° S 20:52:18 74° WSW 20:57:49 10° NNW
ATLAS CENTAUR R/B 3.5 20:59:20 10° WNW 21:02:32 23° WSW 21:05:11 12° SSW
Cosmos 1420 Rocket 4.1 20:58:11 10° N 21:03:18 52° ENE 21:03:18 52° ENE
GPS 2-04 Rocket1 4.2 21:00:34 10° SW 21:02:15 24° SSW 21:02:15 24° SSW
ALOS 2.6 21:04:35 24° S 21:07:21 64° W 21:12:00 10° NNW
Atlas Centaur 2 3.6 21:01:04 10° W 21:08:56 43° SSW 21:11:38 33° SSE
Cosmos 1674 4.5 21:05:45 10° N 21:07:20 23° N 21:07:20 23° N
Meteor 1-21 Rocket 4.3 21:04:42 10° NNW 21:10:14 74° W 21:13:43 23° S
Cosmos 1743 Rocket 3.5 21:06:19 10° N 21:10:41 84° NW 21:10:41 84° NW
Cosmos 1269 Rocket 4.0 21:07:19 10° SSW 21:12:36 79° WNW 21:17:54 10° NNE
ASTRO E2 3.9 21:11:09 10° WSW 21:13:54 36° SW 21:13:54 36° SW
Cosmos 1048 Rocket 4.0 21:14:01 10° SSW 21:19:20 81° WNW 21:24:38 10° NNE
Nadezhda 4 Rocket 4.1 21:13:14 10° N 21:19:30 75° W 21:23:28 24° S
Cosmos 2142 Rocket 4.4 21:23:10 68° SE 21:23:41 72° E 21:30:04 10° N
Cosmos 1092 Rocket 3.8 21:18:20 10° N 21:24:34 86° E 21:25:37 64° SSE
OAO 3 Rocket 3.5 21:19:49 10° W 21:23:54 64° W 21:23:54 64° W
Envisat 4.5 21:30:15 26° NNE 21:30:15 26° NNE 21:32:33 10° N
ATLAS 5 CENTAUR R/B 3.9 21:29:56 10° WSW 21:33:56 26° NW 21:38:12 10° N
Cosmos 1634 Rocket 3.9 21:33:48 61° SSW 21:35:00 87° W 21:41:16 10° N
CENTAUR R/B 3.0 21:32:22 10° SSW 21:47:41 - NNE 21:36:16 45° SSW
Cosmos 2369 Rocket 4.0 22:23:00 10° NNW 22:25:24 26° NW 22:25:24 26° NW
